Vorticity
nan nan nan nan nan nan nan nan nan nan nan nan nan nan nan nan nan nan nan nan nan nan nan nan nan nan nan nan nan nan nan nan nan nan nan nan nan nan nan nan nan nan nan nan
nan 10 9 7 8 6 6 8 7 10 14 8 9 8 10 9 12 10 4 9 8 10 13 10 12 8 7 7 6 7 6 7 6 7 7 8 10 9 9 8 9 8 8 nan
nan 7 11 9 8 13 8 6 6 7 9 6 9 11 11 10 10 10 12 8 9 9 7 7 10 8 7 8 8 8 7 6 6 7 6 7 8 9 9 8 10 10 9 nan
nan 11 11 13 10 8 9 12 10 8 5 7 8 13 8 13 13 12 10 11 10 8 8 9 7 7 6 8 8 9 10 7 7 9 6 6 7 7 8 9 8 8 8 nan
nan 9 12 11 15 4 7 12 17 9 8 10 8 13 7 12 14 14 8 10 9 12 12 11 8 6 6 10 8 8 9 8 8 7 7 6 6 8 8 9 8 8 10 nan
nan 7 8 8 11 13 10 3 7 9 9 7 13 7 9 11 8 13 14 8 9 9 9 10 9 9 9 8 9 9 9 7 9 8 8 8 6 6 6 7 9 9 9 nan
nan 9 9 8 4 6 5 7 6 7 12 10 9 6 9 7 11 10 15 12 10 9 9 8 8 6 10 10 7 8 8 8 8 8 7 8 8 8 7 7 9 8 8 nan
nan 8 12 6 12 8 5 10 9 10 7 10 8 6 9 12 13 10 6 10 15 10 7 8 6 5 9 8 7 8 9 8 8 8 7 7 7 7 9 9 9 8 8 nan
nan 9 8 11 14 10 6 10 8 8 8 12 6 6 10 14 13 11 7 6 5 12 16 9 6 6 8 9 9 8 8 9 9 7 8 8 8 8 9 9 7 8 8 nan
nan 13 11 10 6 10 16 4 3 11 11 7 8 11 12 11 11 9 10 10 9 12 15 12 11 9 8 9 9 10 9 10 8 8 9 10 9 8 9 9 9 7 9 nan
nan 9 5 10 10 5 4 5 11 15 10 7 8 12 17 10 10 13 9 13 21 14 12 11 8 10 11 11 10 9 9 9 9 8 9 9 10 10 9 9 10 10 10 nan
nan 5 12 4 5 11 10 10 6 7 9 8 10 6 18 18 9 7 8 10 16 16 13 11 8 7 11 9 9 9 8 8 9 10 10 10 10 10 10 10 10 11 11 nan
nan 5 5 4 13 17 14 9 6 7 14 13 4 5 8 11 10 6 8 9 12 14 10 8 11 10 6 8 9 9 9 8 9 10 10 11 10 9 10 10 10 9 10 nan
nan 10 14 8 7 6 10 12 9 6 5 14 0 8 7 13 7 7 10 12 16 13 8 6 6 9 8 10 10 9 8 10 9 9 9 9 10 10 10 9 9 10 10 nan
nan 9 10 11 11 7 8 10 10 7 9 6 10 9 9 16 16 11 5 9 16 14 11 9 9 11 8 6 8 9 10 10 9 8 9 9 9 9 10 10 9 9 9 nan
nan 18 12 10 14 13 8 8 7 8 11 7 13 11 18 9 15 14 7 11 17 15 11 11 9 9 10 7 8 8 9 10 9 9 7 8 10 10 9 9 11 9 9 nan
nan 14 11 13 11 6 10 15 9 8 8 12 10 12 10 10 11 9 9 17 20 15 13 11 10 7 8 9 10 9 7 8 10 8 9 8 8 8 8 9 10 11 9 nan
nan 11 12 13 9 10 5 9 17 12 6 5 4 20 13 9 14 15 12 14 15 16 12 10 10 8 10 9 10 11 11 9 8 9 9 8 9 8 9 10 8 8 11 nan
nan 7 12 13 7 7 11 14 13 10 8 14 11 13 11 10 8 10 14 10 11 13 16 15 12 9 9 11 10 11 8 10 9 8 9 10 9 9 9 9 7 7 9 nan
nan 11 12 10 13 10 5 6 12 9 13 13 13 11 9 4 6 15 14 10 11 11 13 14 10 10 9 13 13 10 10 8 9 10 10 10 10 9 9 9 7 7 9 nan
nan 13 11 10 8 8 13 9 16 10 9 9 20 15 8 5 2 13 12 13 16 15 12 13 13 9 8 8 11 9 9 10 9 10 11 11 11 10 9 8 8 9 10 nan
nan 11 8 10 10 2 5 18 15 10 10 12 16 18 9 4 9 13 14 13 13 7 13 14 9 10 11 11 9 10 8 10 11 13 10 9 9 9 12 10 8 10 9 nan
nan 12 13 10 5 6 10 13 7 18 15 11 12 14 13 9 8 11 15 15 14 9 10 16 15 12 11 11 8 6 11 12 11 10 10 10 9 9 11 10 8 8 9 nan
nan 11 12 6 5 4 6 13 21 18 15 17 13 8 11 13 11 12 15 18 14 13 13 17 17 13 10 11 12 9 12 13 11 8 9 11 10 8 7 8 10 9 8 nan
nan 6 12 8 6 7 2 4 8 14 14 11 13 16 13 9 10 11 10 10 11 12 12 16 15 14 14 15 12 15 14 10 9 10 10 8 10 10 8 9 10 10 9 nan
nan nan nan nan nan nan nan nan nan nan nan nan nan nan nan nan nan nan nan nan nan nan nan nan nan nan nan nan nan nan nan nan nan nan nan nan nan nan nan nan nan nan nan nan
CAPE
0 147 219 64 170 229 110 64 0 0 28 8 2 0 0 0 0 5 138 234 601 728 877 718 1061 1085 1007 722 346 204 131 114 20 0 0 0 0 0 0 0 0 0 0 3
4 304 148 211 217 124 167 77 43 6 212 39 38 23 25 60 25 23 31 73 306 312 578 819 1027 1101 971 721 423 256 153 240 52 0 0 0 0 0 0 0 0 0 7 0
12 41 27 352 283 300 98 110 44 78 400 230 62 61 82 80 61 20 19 41 157 194 278 797 1015 979 889 760 561 392 277 210 111 27 0 0 0 0 0 0 0 0 0 0
1 25 45 87 180 10 73 8 265 534 337 163 201 122 1 147 50 39 9 11 71 225 124 708 1063 1009 929 849 706 532 374 232 89 38 41 22 2 0 0 0 0 0 0 0
137 6 15 110 182 0 4 266 163 291 173 45 29 56 0 195 142 1 0 0 54 58 168 399 1043 1090 1003 935 737 565 246 60 114 42 26 11 1 0 0 0 0 0 0 0
38 1 4 9 17 45 129 143 8 0 0 2 0 0 0 0 0 10 2 17 0 7 326 281 845 867 828 847 735 504 236 111 105 84 31 25 5 0 0 0 0 0 0 0
50 3 12 62 27 27 32 28 61 40 10 33 0 0 0 0 0 0 5 3 0 0 303 283 404 437 585 671 658 530 300 218 155 165 119 68 26 1 7 0 0 0 0 37
68 37 0 0 8 32 3 112 53 28 0 0 0 3 0 0 0 0 5 6 0 7 14 273 244 505 522 426 627 652 345 263 190 210 241 181 99 49 21 11 1 0 12 54
0 0 0 0 0 73 13 52 12 0 0 30 12 33 0 0 0 0 0 0 3 27 10 260 322 286 448 454 392 567 379 256 332 241 212 252 214 139 50 0 0 3 16 101
0 0 0 0 0 7 84 1 117 5 60 27 3 56 10 0 0 0 0 0 0 0 61 368 441 458 463 555 444 541 498 392 408 316 259 223 119 100 45 2 0 16 214 355
0 0 0 0 0 0 6 121 0 19 0 46 1 3 1 0 0 26 55 54 0 2 105 469 487 79 318 517 592 607 642 606 584 337 232 170 36 43 32 38 9 52 67 143
0 0 0 0 0 0 0 38 1 47 9 0 0 0 0 0 0 1 41 24 12 28 329 520 481 227 438 478 547 640 588 698 600 336 57 35 2 30 46 74 46 15 205 294
0 0 0 0 0 0 0 2 17 0 0 0 25 0 0 0 11 0 6 3 16 63 363 378 312 281 338 432 590 735 678 648 309 71 47 10 10 35 86 50 28 148 314 254
0 0 0 0 0 0 0 0 0 1 0 0 2 0 0 8 9 0 0 1 1 113 377 387 353 347 324 279 500 803 735 578 281 74 43 25 26 92 92 12 258 207 293 141
0 0 0 0 0 0 0 0 0 0 0 0 0 0 0 0 0 0 2 0 0 15 267 352 350 319 348 290 284 562 709 447 314 168 83 43 47 80 61 123 338 289 365 123
0 0 0 0 0 0 0 0 0 0 0 0 0 0 0 0 0 20 50 21 11 4 350 385 390 360 426 310 348 384 632 505 312 233 229 54 11 0 136 192 354 470 276 21
0 0 0 0 0 0 0 0 0 0 0 0 5 0 19 43 0 0 6 17 130 130 399 470 439 387 532 398 511 508 622 515 232 187 206 84 10 0 37 156 387 202 136 11
0 0 0 0 0 0 0 0 0 0 0 1 22 24 20 75 44 32 49 151 131 245 444 479 502 471 435 592 633 682 670 452 212 56 109 15 1 1 105 316 431 147 43 15
0 0 0 0 0 0 0 0 0 0 0 0 0 18 36 197 211 241 183 196 72 58 315 380 483 467 331 552 626 637 693 406 192 39 16 14 40 121 394 396 280 56 0 0
0 0 0 0 0 0 0 0 0 0 0 287 284 16 186 157 385 317 195 251 87 43 59 345 360 353 277 292 392 561 638 349 154 61 40 46 55 236 592 572 146 36 0 0
0 0 0 0 0 0 0 0 0 0 0 137 158 0 51 163 138 21 134 81 66 25 86 215 342 367 390 287 385 526 476 298 191 93 78 105 254 281 610 570 125 6 0 0
0 0 0 0 0 0 0 0 0 0 118 67 0 0 6 141 222 106 84 38 57 18 268 370 452 461 536 419 505 477 461 400 312 235 149 189 478 396 555 302 110 3 0 0
0 0 0 0 0 0 0 0 0 0 131 322 460 423 323 335 293 168 100 78 62 67 81 679 671 688 714 674 626 526 524 571 603 1008 884 770 638 573 475 284 135 10 0 0
0 0 0 0 0 0 0 0 0 0 0 1 8 144 284 524 345 212 308 190 247 341 418 812 951 860 834 943 779 691 605 946 1091 1229 1317 1077 905 696 478 330 147 88 0 0
0 0 0 0 0 0 0 0 0 0 0 0 0 1 71 58 20 173 210 173 139 223 325 274 670 754 905 989 1019 897 983 1258 1343 1422 1417 1245 1019 481 513 322 175 132 12 0
0 0 0 0 0 0 0 0 0 0 0 0 0 0 0 0 0 0 0 0 0 2 19 85 251 402 324 1255 1021 1211 1483 1550 1472 1504 1405 1247 1033 521 789 601 243 0 9 0